アトラス彗星

C/2020 F2 ( ATLAS )

English version
Home page
Updated on October 14, 2023

---------------------------------------------------------------------

・ プロフィール

発見日 2020年3月21日、22日
発見光度 19.3等、19.3等
発見者 Asteroid Terrestrial-Impact Last Alert System (ATLAS) search program, Pan-STARRS 1 telescope (Haleakala)

・ 写真集

・ 軌道要素

Epoch 2023 Feb. 25.0 TT = JDT 2460000.5
T 2022 July 15.10658 TT                                 Rudenko
q   8.8168436            (2000.0)            P               Q
z  -0.0006173      Peri.   48.33592     -0.89885518     -0.34829665
 +/-0.0000011      Node   250.28583     -0.43633413     +0.76787832
e   1.0054428      Incl.  163.58770     +0.04088877     +0.53763587
>From 1313 observations 2019 May 27-2023 Feb. 27, mean residual 0".4.

・ 星図

・ 光度変化

        m1 = -11.5 + 5 logΔ + 25 log r

---------------------------------------------------------------------

軌道要素はM.P.E.C. 2023-D72に掲載されたものです。
星図はステラナビゲータ Ver.10 (アストロアーツ) で作成したものです。
光度グラフはComet for Windowsで作成したものです。

---------------------------------------------------------------------

Copyright(C) Seiichi Yoshida (comet@aerith.net). All rights reserved.